This is the latest recevied weather packets stored in our database for station/object W2GRK-15. If no packets are shown the sender has not sent any weather packets the latest 10 day(s).
| Time | Temp. | Humidity | Pressure | Rain* | Wind** | Luminosity | Snow |
|---|---|---|---|---|---|---|---|
| 1777813039 | 10° C | 52% | 1013.3 hPa | 0 mm | - | 358 W/m² | - |
| 1777812507 | 8.89° C | 54% | 1013.2 hPa | 0 mm | - | 403 W/m² | - |
| 1777812378 | 8.89° C | 54% | 1013.4 hPa | 0 mm | - | 322 W/m² | - |
| 1777812265 | 8.89° C | 54% | 1013.2 hPa | 0 mm | - | 241 W/m² | - |
| 1777811895 | 8.89° C | 55% | 1013.2 hPa | 0 mm | - | 216 W/m² | - |
| 1777811476 | 8.33° C | 56% | 1013.3 hPa | 0 mm | - | 214 W/m² | - |
| 1777811029 | 7.78° C | 56% | 1013.3 hPa | 0 mm | - | 143 W/m² | - |
| 1777810349 | 7.78° C | 56% | 1013.2 hPa | 0 mm | - | 128 W/m² | - |
| 1777810042 | 7.78° C | 56% | 1013.3 hPa | 0 mm | - | 118 W/m² | - |
| 1777809446 | 7.78° C | 57% | 1013.1 hPa | 0 mm | - | 91 W/m² | - |
| 1777809269 | 7.78° C | 58% | 1013 hPa | 0 mm | - | 85 W/m² | - |
| 1777809224 | 7.78° C | 58% | 1013.1 hPa | 0 mm | - | 82 W/m² | - |
| 1777808898 | 7.22° C | 58% | 1013.1 hPa | 0 mm | - | 68 W/m² | - |
| 1777808656 | 7.22° C | 58% | 1013.2 hPa | 0 mm | - | 61 W/m² | - |
| 1777808563 | 7.22° C | 58% | 1013.1 hPa | 0 mm | - | 57 W/m² | - |
| 1777808189 | 7.22° C | 58% | 1012.9 hPa | 0 mm | - | 51 W/m² | - |
| 1777808060 | 7.22° C | 57% | 1013.2 hPa | 0 mm | - | 52 W/m² | - |
| 1777807528 | 7.22° C | 57% | 1012.8 hPa | 0 mm | - | 66 W/m² | - |
| 1777807351 | 7.22° C | 57% | 1013 hPa | 0 mm | - | 72 W/m² | - |
| 1777806449 | 7.22° C | 58% | 1012.8 hPa | 0 mm | - | 55 W/m² | - |
| 1777805966 | 7.22° C | 58% | 1012.5 hPa | 0 mm | - | 47 W/m² | - |
| 1777805837 | 7.22° C | 58% | 1012.6 hPa | 0 mm | - | 46 W/m² | - |
| 1777805305 | 7.22° C | 57% | 1012.4 hPa | 0 mm | - | 34 W/m² | - |
| 1777804886 | 7.22° C | 58% | 1012.4 hPa | 0 mm | - | 25 W/m² | - |
| 1777804338 | 7.22° C | 57% | 1012.4 hPa | 0 mm | - | 19 W/m² | - |
* Rain latest hour (hover to see other rain measurements)
** Current wind speed in m/s (hover to see current wind gust speed)